STARLINK-32845, 62815

Orbit data source: Space-Track

STARLINK-32845, 62815 is a payload satellite owned by SpaceX/Seattle (US) in LEO that was launched on Fri, 24 Jan 2025 UTC via an FALCON 9 launch vehicle from the Air Force Western Test Range (AFWTR). Payload-class satellites include a variety of spacecraft equipped with specific instruments for various scientific and technological missions. These include communications satellites like Starlink; space stations such as the ISS; scientific satellites like the Hubble; Earth observation satellites from companies like Planet Labs, Umbra, and HawkEye 360; GPS; miniature CubeSats for education and research; and military/defense satellites.

Loading next visibility...
Identifier
62815, 2025-018K
Orbit
LEO
Last TLE update
9 hours ago
Origin
Manufacturer
SpaceX/Seattle
Mission
Operational Commercial Communications
Bus & Motor
STARLINK V2M, Unknown motor
Mass
730 kg wet, ~700 kg dry
Launch date (UTC)
2025-01-24 (6 months ago)
Launch vehicle
FALCON 9
Launch site
Air Force Western Test Range (AFWTR)
Object type
Payload
Rocket body
Debris
Shape & HBR
Box + 2 Pan, 14.5 m
Radar Cross Section
33.884 m², Large (>1 m²)

Expand to show TLE details & history

TLE from 9 hours ago
0 STARLINK-32845
1 62815U 25018K   25199.61538341  .00021121  00000-0  72353-3 0  9995
2 62815  53.1577 316.6342 0001173  88.9735 271.1400 15.30185971 27339
Epoch: 2025-07-18T14:46Z
TLE epoch observation values (Epoch: 2025-07-18T14:46:09.126Z)
Latitude
-0.00004°
Longitude
158.43185°
Altitude
476.141 km
Speed
7.629 km/s
True Right ascension
21h 06m 32s
True Declination
0° 00' 00"
Sunlit
Object was in full shadow at epoch
Visualization orbit readout
Latitude
-50.71844°
Longitude
42.33688°
Altitude
493.518 km
Speed
7.617 km/s
Apparent Right ascension
20h 45m 37s
Apparent Declination
-82° 53' 02"
Sunlit
Object is in daylight
Visualization observer readout
Local Sidereal Time
12:30:36
Azimuth
171.824° S
Elevation
-43.592°
Doppler factor
1
Orbital elements
Apogee altitude
476.318 km
Perigee altitude
474.71 km
Semi-major axis
6,853.651 km
Eccentricity
0.00012
Inclination
53.1577°
RAAN
316.6342°
Arg. of periapsis
88.9735°
True anomaly
271.12656°
Mean anomaly
271.14°
Eccentric anomaly
271.13328°
Mean motion
3.82525 °/min
Orbital period
94.11 mins
BSTAR
0.00072353
Loading maneuver chart data...
Loading SW <> Apogee altitude chart data...
Loading historical data...
Loading historical data...
Loading historical data...
Loading historical data...
Loading historical data...
Loading historical data...
Loading historical data...
|